Weather History for Hailey, ID

Change the Weather History Date:

Tuesday, March 11, 2014

  Actual Average Record
Temperature  
Mean Temperature 39 °F -  
Max Temperature 46 °F 43 °F 59 °F (2005)
Min Temperature 32 °F 21 °F 6 °F (2009)
Degree Days  
Heating Degree Days 26    
Moisture  
Dew Point 20 °F    
Average Humidity 54    
Maximum Humidity 70    
Minimum Humidity 29    
Precipitation  
Precipitation 0.00 in - - ()
Sea Level Pressure  
Sea Level Pressure 30.18 in    
Wind  
Wind Speed 8 mph (NW)    
Max Wind Speed 17 mph    
Max Gust Speed 20 mph    
Visibility 10 miles    
Events      
Averages and records for this station are not official NWS values.
T = Trace of Precipitation, MM = Missing Value Source: NWS Daily Summary

Daily Weather History Graph

Daily Weather History Graph

Search for Another Location

Airport:

Trip Planner

Search our weather history database for the weather conditions in past years. The results will help you decide how hot, cold, wet, or windy it might be!

Date:

Astronomy

Mar. 11, 2014 Rise Set
Actual Time 7:56 AM MDT 7:38 PM MDT
Civil Twilight 7:27 AM MDT 8:07 PM MDT
Nautical Twilight 6:54 AM MDT 8:40 PM MDT
Astronomical Twilight 6:21 AM MDT 9:14 PM MDT
Moon 3:12 PM MDT (3/11) 4:59 AM MDT (3/11)
Length of Visible Light 12h 39m
Length of Day
11h 42m
Waxing Gibbous, 78% of the Moon is Illuminated
Mar 11
Waxing Gibbous
Mar 16
Full
Mar 23
Last Quarter
Mar 30
New
Apr 7
First Quarter

Hourly Weather History & Observations

Time (MDT) Temp. Windchill Dew Point Humidity Pressure Visibility Wind Dir Wind Speed Gust Speed Precip Events Conditions
12:15 AM 33.8 °F 27.0 °F 23.0 °F 65% 30.02 in 10.0 mi NW 8.1 mph - N/A   Clear
12:35 AM 33.8 °F 27.0 °F 24.8 °F 70% 30.02 in 10.0 mi WNW 8.1 mph - N/A   Clear
12:55 AM 33.8 °F 27.0 °F 23.0 °F 65% 30.02 in 10.0 mi NW 8.1 mph - N/A   Clear
1:15 AM 33.8 °F 26.4 °F 23.0 °F 65% 30.02 in 10.0 mi NW 9.2 mph - N/A   Clear
1:35 AM 33.8 °F 24.8 °F 23.0 °F 65% 30.03 in 10.0 mi WNW 12.7 mph 18.4 mph N/A   Clear
1:55 AM 33.8 °F 24.8 °F 23.0 °F 65% 30.03 in 10.0 mi NW 12.7 mph - N/A   Clear
2:15 AM 33.8 °F 27.0 °F 21.2 °F 60% 30.04 in 10.0 mi NW 8.1 mph - N/A   Clear
2:35 AM 33.8 °F 27.0 °F 21.2 °F 60% 30.04 in 10.0 mi WNW 8.1 mph - N/A   Clear
2:55 AM 32.0 °F 26.4 °F 23.0 °F 69% 30.05 in 10.0 mi NNW 5.8 mph - N/A   Clear
3:15 AM 33.8 °F 27.7 °F 21.2 °F 60% 30.06 in 10.0 mi NNW 6.9 mph - N/A   Clear
3:35 AM 33.8 °F 28.6 °F 19.4 °F 56% 30.06 in 10.0 mi NW 5.8 mph - N/A   Clear
3:55 AM 33.8 °F 27.0 °F 19.4 °F 56% 30.06 in 10.0 mi WNW 8.1 mph - N/A   Clear
4:15 AM 33.8 °F 27.7 °F 19.4 °F 56% 30.06 in 10.0 mi North 6.9 mph - N/A   Clear
4:35 AM 33.8 °F 25.3 °F 17.6 °F 52% 30.07 in 10.0 mi North 11.5 mph 19.6 mph N/A   Clear
4:55 AM 33.8 °F 25.8 °F 19.4 °F 56% 30.07 in 10.0 mi NNW 10.4 mph 18.4 mph N/A   Clear
5:20 AM 32.0 °F 25.6 °F 19.4 °F 60% 30.08 in 10.0 mi North 6.9 mph - N/A   Clear
5:35 AM 33.8 °F 26.4 °F 19.4 °F 56% 30.08 in 10.0 mi North 9.2 mph - N/A   Clear
5:55 AM 33.8 °F 25.3 °F 19.4 °F 56% 30.10 in 10.0 mi North 11.5 mph 18.4 mph N/A   Clear
6:15 AM 33.8 °F 24.8 °F 17.6 °F 52% 30.11 in 10.0 mi North 12.7 mph 18.4 mph N/A   Clear
6:35 AM 33.8 °F 28.6 °F 19.4 °F 56% 30.11 in 10.0 mi NNW 5.8 mph - N/A   Clear
6:47 AM 33.8 °F - 17.6 °F 52% 30.12 in 10.0 mi Calm Calm - N/A   Scattered Clouds
6:55 AM 33.8 °F 26.4 °F 17.6 °F 52% 30.11 in 10.0 mi NW 9.2 mph - N/A   Clear
7:50 AM 35.6 °F 29.2 °F 15.8 °F 44% 30.15 in 10.0 mi NW 8.1 mph - N/A   Overcast
8:47 AM 35.6 °F 27.5 °F 15.8 °F 44% 30.18 in 10.0 mi NW 11.5 mph - N/A   Mostly Cloudy
9:47 AM 37.4 °F 27.8 °F 17.6 °F 45% 30.21 in 10.0 mi WNW 17.3 mph - N/A   Mostly Cloudy
10:47 AM 37.4 °F 30.8 °F 17.6 °F 45% 30.25 in 10.0 mi NW 9.2 mph - N/A   Mostly Cloudy
11:47 AM 39.2 °F 32.0 °F 15.8 °F 39% 30.28 in 10.0 mi NW 11.5 mph - N/A   Scattered Clouds
12:47 PM 42.8 °F 36.6 °F 15.8 °F 34% 30.30 in 10.0 mi West 11.5 mph - N/A   Scattered Clouds
1:47 PM 42.8 °F 35.8 °F 15.8 °F 34% 30.32 in 10.0 mi NW 13.8 mph - N/A   Scattered Clouds
2:47 PM 44.6 °F 40.2 °F 15.8 °F 31% 30.31 in 10.0 mi WNW 8.1 mph - N/A   Mostly Cloudy
3:47 PM 46.4 °F 44.3 °F 15.8 °F 29% 30.32 in 10.0 mi SSW 4.6 mph - N/A   Mostly Cloudy
4:55 PM 44.6 °F 42.2 °F 15.8 °F 31% 30.33 in 10.0 mi SE 4.6 mph - N/A   Mostly Cloudy
5:50 PM 44.6 °F 40.2 °F 23.0 °F 43% 30.34 in 10.0 mi SE 8.1 mph - N/A   Mostly Cloudy
6:47 PM 42.8 °F 39.3 °F 24.8 °F 49% 30.34 in 10.0 mi South 5.8 mph - N/A   Scattered Clouds
7:47 PM 39.2 °F - 24.8 °F 56% 30.36 in 10.0 mi Calm Calm - N/A   Partly Cloudy
8:47 PM 37.4 °F - 24.8 °F 60% 30.38 in 10.0 mi Calm Calm - N/A   Partly Cloudy
9:47 PM 35.6 °F 29.9 °F 24.8 °F 65% 30.38 in 10.0 mi NNW 6.9 mph - N/A   Clear
10:47 PM 33.8 °F 28.6 °F 23.0 °F 65% 30.39 in 10.0 mi NW 5.8 mph - N/A   Clear
11:15 PM 32.0 °F 26.4 °F 23.0 °F 69% 30.40 in 10.0 mi NW 5.8 mph - N/A   Clear
11:35 PM 32.0 °F 24.2 °F 21.2 °F 64% 30.40 in 10.0 mi WNW 9.2 mph - N/A   Clear
11:55 PM 32.0 °F 24.2 °F 23.0 °F 69% 30.39 in 10.0 mi NNW 9.2 mph - N/A   Clear